Moline, IL

8:34 PM CST on November 19, 2017 (GMT -0600)
Quad-City International

Weather History for KMLI - December, 2012

Change the Weather History Date:

Friday, December 7, 2012

  Actual Average Record
Temperature  
Mean Temperature 40 °F 29 °F  
Max Temperature 43 °F 37 °F 66 °F (1916)
Min Temperature 37 °F 21 °F -15 °F (1882)
Degree Days  
Heating Degree Days 25 36  
Month to date heating degree days 136 242  
Since 1 July heating degree days 1481 1473  
Cooling Degree Days 0 0  
Month to date cooling degree days 0 0  
Year to date cooling degree days 1208 1004  
Moisture  
Dew Point 35 °F    
Average Humidity 82    
Maximum Humidity 93    
Minimum Humidity 70    
Precipitation  
Precipitation 0.12 in 0.08 in 1.15 in (1980)
Month to date precipitation 0.18 0.58  
Year to date precipitation 24.76 36.36  
Snow  
Snow 0.00 in 0.20 in - ()
Month to date snowfall 0.0 1.6  
Since 1 July snowfall T 2.8  
Snow Depth 0.00 in    
Sea Level Pressure  
Sea Level Pressure 29.93 in    
Wind  
Wind Speed 6 mph (NE)    
Max Wind Speed 14 mph    
Max Gust Speed 16 mph    
Visibility 9 miles    
Events Rain    
T = Trace of Precipitation, MM = Missing Value Source: NWS Daily Summary

Daily Weather History Graph

Daily Weather History Graph

Search for Another Location

Airport or City:

Trip Planner

Search our weather history database for the weather conditions in past years. The results will help you decide how hot, cold, wet, or windy it might be!

Date:

Astronomy

Dec. 07, 2012 Rise Set
Actual Time 7:15 AM CST 4:32 PM CST
Civil Twilight 6:44 AM CST 5:03 PM CST
Nautical Twilight 6:09 AM CST 5:38 PM CST
Astronomical Twilight 5:35 AM CST 6:11 PM CST
Moon 12:30 AM CST (12/7) 12:32 PM CST (12/7)
Length of Visible Light 10h 19m
Length of Day
9h 17m
Last Quarter, 38% of the Moon is Illuminated
Dec 7
Last Quarter
Dec 13
New
Dec 19
First Quarter
Dec 28
Full
Jan 4
Last Quarter

Hourly Weather History & Observations

Time (CST) Temp. Windchill Dew Point Humidity Pressure Visibility Wind Dir Wind Speed Gust Speed Precip Events Conditions
12:52 AM 42.1 °F 40.2 °F 39.9 °F 92% 29.95 in 7.0 mi WNW 3.5 mph - 0.03 in Rain Light Rain
1:52 AM 42.1 °F - 39.0 °F 89% 29.95 in 9.0 mi Calm Calm - 0.01 in Rain Light Rain
2:52 AM 41.0 °F - 39.9 °F 96% 29.95 in 7.0 mi Calm Calm - 0.02 in   Overcast
3:52 AM 41.0 °F - 39.9 °F 96% 29.94 in 6.0 mi Calm Calm - N/A   Overcast
4:52 AM 41.0 °F - 39.0 °F 93% 29.96 in 7.0 mi Calm Calm - N/A   Overcast
5:52 AM 39.9 °F 36.7 °F 36.0 °F 86% 29.95 in 10.0 mi NNE 4.6 mph - N/A   Overcast
6:52 AM 39.9 °F 36.7 °F 35.1 °F 83% 29.96 in 10.0 mi NNE 4.6 mph - N/A   Overcast
7:52 AM 39.9 °F 34.5 °F 35.1 °F 83% 29.96 in 10.0 mi NE 8.1 mph - N/A   Overcast
8:52 AM 41.0 °F 35.8 °F 35.1 °F 79% 29.96 in 10.0 mi East 8.1 mph - N/A   Overcast
9:52 AM 41.0 °F 35.2 °F 33.1 °F 73% 29.96 in 10.0 mi East 9.2 mph - N/A   Overcast
10:52 AM 41.0 °F 34.7 °F 33.1 °F 73% 29.94 in 10.0 mi ENE 10.4 mph - N/A   Overcast
11:52 AM 42.1 °F 36.1 °F 33.1 °F 70% 29.93 in 10.0 mi ENE 10.4 mph - N/A   Overcast
12:52 PM 42.1 °F 36.6 °F 33.1 °F 70% 29.92 in 10.0 mi ENE 9.2 mph - N/A   Overcast
1:52 PM 42.1 °F 37.1 °F 33.1 °F 70% 29.91 in 10.0 mi ENE 8.1 mph - N/A   Overcast
2:52 PM 42.1 °F 38.4 °F 33.1 °F 70% 29.91 in 10.0 mi ENE 5.8 mph - N/A   Overcast
3:52 PM 41.0 °F 35.8 °F 33.1 °F 73% 29.90 in 10.0 mi ENE 8.1 mph - N/A   Overcast
4:52 PM 41.0 °F 36.4 °F 32.0 °F 70% 29.90 in 10.0 mi ENE 6.9 mph - N/A   Overcast
5:52 PM 39.9 °F 35.8 °F 33.1 °F 77% 29.89 in 10.0 mi ENE 5.8 mph - N/A   Overcast
6:14 PM 41.0 °F - 32.0 °F 70% 29.90 in 10.0 mi Calm Calm - N/A   Overcast
6:52 PM 39.9 °F 35.8 °F 34.0 °F 79% 29.92 in 10.0 mi North 5.8 mph - 0.00 in   Overcast
7:52 PM 39.0 °F 34.0 °F 34.0 °F 82% 29.92 in 10.0 mi North 6.9 mph - 0.00 in   Overcast
8:52 PM 37.4 °F 32.1 °F 33.8 °F 87% 29.91 in 10.0 mi NNE 6.9 mph - N/A   Overcast
9:52 PM 37.0 °F 33.3 °F 33.1 °F 86% 29.92 in 7.0 mi NE 4.6 mph - 0.02 in Rain Light Rain
10:52 PM 37.0 °F - 34.0 °F 89% 29.91 in 8.0 mi Calm Calm - 0.03 in   Overcast
11:26 PM 37.4 °F 34.9 °F 35.6 °F 93% 29.91 in 7.0 mi NNW 3.5 mph - 0.01 in   Overcast
11:52 PM 37.0 °F 32.4 °F 35.1 °F 93% 29.90 in 7.0 mi ENE 5.8 mph - 0.02 in   Overcast